Regional Weather Roundup
Issued by NWS

Home | Current Version | Previous Version | Text Only | Print | Product List | Glossary On
Versions: 1 2 3 4 5 6 7 8 9 10 11 12 13 14 15 16 17 18 19 20 21 22 23 24 25 26 27 28 29 30 31 32 33 34 35 36 37 38 39 40 41 42 43 44 45 46 47 48 49 50
000
ASUS43 KLSX 271857
RWRMO

WEATHER SUMMARY FOR MISSOURI
NATIONAL WEATHER SERVICE SPRINGFIELD MO
200 PM CDT SAT AUG 27 2016

NOTE: "FAIR" INDICATES FEW OR NO CLOUDS BELOW 12,000 FEET WITH NO
       SIGNIFICANT WEATHER AND/OR OBSTRUCTIONS TO VISIBILITY.
       CURRENT SKY AND/OR WEATHER CONDITIONS ARE NOT AVAILABLE FOR
       CHILLICOTHE AND FARMINGTON.

MOZ001>031-035>038-043-044-053-054-272000-
...NORTHERN AND WESTERN MISSOURI...

CITY           SKY/WX    TMP DP  RH WIND       PRES   REMARKS
KANSAS CTY INT PTSUNNY   84  69  60 VRB5      30.03S
LEE`S SUMMIT   MOSUNNY   84  71  65 VRB3      30.03S
ST JOSEPH      SUNNY     82  69  64 VRB5      30.03S

$$
MOZ066>068-077>081-088>096-101>105-272000-
...SOUTHWEST MISSOURI...

CITY           SKY/WX    TMP DP  RH WIND       PRES   REMARKS
SPRINGFIELD    CLOUDY    86  68  54 SW8       30.06S
JOPLIN         SUNNY     86  70  58 SW6       30.04F HX  90
BRANSON        CLOUDY    86  72  62 CALM      30.08F HX  92

$$
MOZ032>034-039>042-045>050-055>058-069>072-272000-
...CENTRAL MISSOURI...

CITY           SKY/WX    TMP DP  RH WIND       PRES   REMARKS
COLUMBIA       NOT AVBL
JEFFERSON CITY MOSUNNY   86  71  60 VRB6      30.03S HX  91
ROLLA          CLOUDY    85  73  67 S9        30.05F HX  91
SEDALIA        SUNNY     88  70  55 SW9       30.05S HX  93

$$
MOZ051-052-059>065-272000-
...EAST CENTRAL MISSOURI...

CITY           SKY/WX    TMP DP  RH WIND       PRES   REMARKS
ST LOUIS INTL  PTSUNNY   92  70  48 SW3       30.04F HX  97

$$
MOZ072>076-082>087-097>100-106>115-272000-
...SOUTH CENTRAL AND SOUTHEAST MISSOURI...

CITY           SKY/WX    TMP DP  RH WIND       PRES   REMARKS
CAPE GIRARDEAU PTSUNNY   88  72  58 CALM      30.06F HX  94
POPLAR BLUFF   SUNNY     87  75  67 SE5       30.05F HX  96
WEST PLAINS    CLOUDY    82  71  69 SE10      30.10S

$$


USA.gov is the U.S. government's official web portal to all federal, state and local government web resources and services.